Time,TemperatureF,DewpointF,PressureIn,WindDirection,WindDirectionDegrees,WindSpeedMPH,WindSpeedGustMPH,Humidity,HourlyPrecipIn,Conditions,Clouds,dailyrainin,SoftwareType,DateUTC
2013-07-18 00:00:00,75.4,66.5,30.04,SE,128,0.0,0.0,74,0.00,,,0.00,WeatherDisplay:10.37,2013-07-18 04:00:00,
2013-07-18 00:10:00,75.4,66.5,30.04,SW,233,0.0,0.0,74,0.00,,,0.00,WeatherDisplay:10.37,2013-07-18 04:10:00,
2013-07-18 00:20:00,75.4,66.5,30.04,SSW,200,0.0,0.0,74,0.00,,,0.00,WeatherDisplay:10.37,2013-07-18 04:20:00,
2013-07-18 00:30:00,75.2,66.3,30.04,SSW,195,0.0,0.0,74,0.00,,,0.00,WeatherDisplay:10.37,2013-07-18 04:30:00,
2013-07-18 00:40:00,74.8,66.0,30.04,SSW,195,0.0,0.0,74,0.00,,,0.00,WeatherDisplay:10.37,2013-07-18 04:40:00,
2013-07-18 00:50:00,74.8,66.0,30.04,SSW,195,0.0,0.0,74,0.00,,,0.00,WeatherDisplay:10.37,2013-07-18 04:50:00,
2013-07-18 01:00:00,74.8,66.0,30.03,SSW,195,0.0,0.0,74,0.00,,,0.00,WeatherDisplay:10.37,2013-07-18 05:00:00,
2013-07-18 01:10:00,74.7,66.2,30.04,SSW,195,0.0,0.0,75,0.00,,,0.00,WeatherDisplay:10.37,2013-07-18 05:10:00,
2013-07-18 01:20:00,74.5,66.0,30.04,SSW,195,0.0,0.0,75,0.00,,,0.00,WeatherDisplay:10.37,2013-07-18 05:20:00,
2013-07-18 01:30:00,74.3,66.2,30.04,South,171,1.0,0.0,76,0.00,,,0.00,WeatherDisplay:10.37,2013-07-18 05:30:00,
2013-07-18 01:40:00,74.1,66.1,30.03,SSE,150,0.0,0.0,76,0.00,,,0.00,WeatherDisplay:10.37,2013-07-18 05:40:00,
2013-07-18 01:50:00,73.9,65.9,30.03,SSE,150,0.0,0.0,76,0.00,,,0.00,WeatherDisplay:10.37,2013-07-18 05:50:00,
2013-07-18 02:00:00,73.9,65.9,30.03,SSE,150,0.0,0.0,76,0.00,,,0.00,WeatherDisplay:10.37,2013-07-18 06:00:00,
2013-07-18 02:10:00,73.8,65.7,30.03,SSE,165,0.0,0.0,76,0.00,,,0.00,WeatherDisplay:10.37,2013-07-18 06:10:00,
2013-07-18 02:20:00,73.6,65.9,30.03,South,191,0.0,0.0,77,0.00,,,0.00,WeatherDisplay:10.37,2013-07-18 06:20:00,
2013-07-18 02:30:00,73.8,66.1,30.02,SW,229,0.0,0.0,77,0.00,,,0.00,WeatherDisplay:10.37,2013-07-18 06:30:00,
2013-07-18 02:40:00,73.9,66.3,30.03,SSW,213,0.0,0.0,77,0.00,,,0.00,WeatherDisplay:10.37,2013-07-18 06:40:00,
2013-07-18 02:50:00,73.6,66.3,30.02,East,87,0.0,0.0,78,0.00,,,0.00,WeatherDisplay:10.37,2013-07-18 06:50:00,
2013-07-18 03:00:00,73.0,66.1,30.01,East,100,0.0,0.0,79,0.00,,,0.00,WeatherDisplay:10.37,2013-07-18 07:00:00,
2013-07-18 03:10:00,72.5,66.0,30.01,SW,218,0.0,0.0,80,0.00,,,0.00,WeatherDisplay:10.37,2013-07-18 07:10:00,
2013-07-18 03:20:00,72.1,66.0,30.01,SSW,213,0.0,0.0,81,0.00,,,0.00,WeatherDisplay:10.37,2013-07-18 07:20:00,
2013-07-18 03:30:00,72.0,65.8,30.01,SSW,192,0.0,0.0,81,0.00,,,0.00,WeatherDisplay:10.37,2013-07-18 07:30:00,
2013-07-18 03:40:00,72.0,65.8,30.01,East,101,0.0,0.0,81,0.00,,,0.00,WeatherDisplay:10.37,2013-07-18 07:40:00,
2013-07-18 03:50:00,71.8,66.0,30.01,East,92,0.0,0.0,82,0.00,,,0.00,WeatherDisplay:10.37,2013-07-18 07:50:00,
2013-07-18 04:00:00,71.6,65.8,30.01,SSE,160,0.0,0.0,82,0.00,,,0.00,WeatherDisplay:10.37,2013-07-18 08:00:00,
2013-07-18 04:10:00,71.2,65.5,30.01,South,182,0.0,0.0,82,0.00,,,0.00,WeatherDisplay:10.37,2013-07-18 08:10:00,
2013-07-18 04:20:00,71.2,65.7,30.01,SSW,195,0.0,0.0,83,0.00,,,0.00,WeatherDisplay:10.37,2013-07-18 08:20:00,
2013-07-18 04:30:00,71.1,65.6,30.01,South,178,0.0,0.0,83,0.00,,,0.00,WeatherDisplay:10.37,2013-07-18 08:30:00,
2013-07-18 04:40:00,70.7,65.3,30.01,South,177,0.0,0.0,83,0.00,,,0.00,WeatherDisplay:10.37,2013-07-18 08:40:00,
2013-07-18 04:50:00,70.7,65.6,30.01,South,173,0.0,0.0,84,0.00,,,0.00,WeatherDisplay:10.37,2013-07-18 08:50:00,
2013-07-18 05:00:00,70.5,65.4,30.02,South,188,0.0,0.0,84,0.00,,,0.00,WeatherDisplay:10.37,2013-07-18 09:00:00,
2013-07-18 05:10:00,70.3,65.3,30.02,South,179,0.0,0.0,84,0.00,,,0.00,WeatherDisplay:10.37,2013-07-18 09:10:00,
2013-07-18 05:20:00,70.2,65.1,30.02,South,176,0.0,0.0,84,0.00,,,0.00,WeatherDisplay:10.37,2013-07-18 09:20:00,
2013-07-18 05:30:00,70.2,65.1,30.02,South,173,0.0,0.0,84,0.00,,,0.00,WeatherDisplay:10.37,2013-07-18 09:30:00,
2013-07-18 05:40:00,70.0,64.9,30.02,SSE,154,0.0,0.0,84,0.00,,,0.00,WeatherDisplay:10.37,2013-07-18 09:40:00,
2013-07-18 05:50:00,70.0,64.9,30.03,South,184,0.0,0.0,84,0.00,,,0.00,WeatherDisplay:10.37,2013-07-18 09:50:00,
2013-07-18 06:00:00,70.0,64.9,30.02,South,175,0.0,0.0,84,0.00,,,0.00,WeatherDisplay:10.37,2013-07-18 10:00:00,
2013-07-18 06:10:00,70.0,65.3,30.03,SSW,213,0.0,0.0,85,0.00,,,0.00,WeatherDisplay:10.37,2013-07-18 10:10:00,
2013-07-18 06:20:00,70.2,65.4,30.03,SSW,192,0.0,0.0,85,0.00,,,0.00,WeatherDisplay:10.37,2013-07-18 10:20:00,
2013-07-18 06:30:00,70.3,65.6,30.03,SSW,205,0.0,0.0,85,0.00,,,0.00,WeatherDisplay:10.37,2013-07-18 10:30:00,
2013-07-18 06:40:00,70.5,65.8,30.04,SSE,166,0.0,0.0,85,0.00,,,0.00,WeatherDisplay:10.37,2013-07-18 10:40:00,
2013-07-18 06:50:00,70.5,65.8,30.04,SSW,201,0.0,0.0,85,0.00,,,0.00,WeatherDisplay:10.37,2013-07-18 10:50:00,
2013-07-18 07:00:00,72.0,67.2,30.04,SW,227,0.0,0.0,85,0.00,,,0.00,WeatherDisplay:10.37,2013-07-18 11:00:00,
2013-07-18 07:10:00,72.9,68.1,30.04,WSW,252,0.0,0.0,85,0.00,,,0.00,WeatherDisplay:10.37,2013-07-18 11:10:00,
2013-07-18 07:20:00,72.9,68.1,30.05,WSW,242,0.0,0.0,85,0.00,,,0.00,WeatherDisplay:10.37,2013-07-18 11:20:00,
2013-07-18 07:30:00,72.9,68.1,30.05,South,191,0.0,0.0,85,0.00,,,0.00,WeatherDisplay:10.37,2013-07-18 11:30:00,
2013-07-18 07:40:00,72.9,68.1,30.05,NNW,340,0.0,0.0,85,0.00,,,0.00,WeatherDisplay:10.37,2013-07-18 11:40:00,
2013-07-18 07:50:00,72.9,68.1,30.05,NNW,347,0.0,0.0,85,0.00,,,0.00,WeatherDisplay:10.37,2013-07-18 11:50:00,
2013-07-18 08:00:00,72.9,68.1,30.05,North,9,0.0,0.0,85,0.00,,,0.00,WeatherDisplay:10.37,2013-07-18 12:00:00,
2013-07-18 08:10:00,78.4,71.0,30.05,SW,230,1.0,0.0,78,0.00,,,0.00,WeatherDisplay:10.37,2013-07-18 12:10:00,
2013-07-18 08:20:00,78.1,71.0,30.06,South,185,0.0,0.0,79,0.00,,,0.00,WeatherDisplay:10.37,2013-07-18 12:20:00,
2013-07-18 08:30:00,77.9,70.9,30.06,West,268,0.0,0.0,79,0.00,,,0.00,WeatherDisplay:10.37,2013-07-18 12:30:00,
2013-07-18 08:40:00,77.9,70.9,30.06,WSW,248,0.0,0.0,79,0.00,,,0.00,WeatherDisplay:10.37,2013-07-18 12:40:00,
2013-07-18 08:50:00,77.9,70.5,30.06,SW,232,0.0,0.0,78,0.00,,,0.00,WeatherDisplay:10.37,2013-07-18 12:50:00,
2013-07-18 09:00:00,78.1,70.7,30.06,South,180,2.0,0.0,78,0.00,,,0.00,WeatherDisplay:10.37,2013-07-18 13:00:00,
2013-07-18 09:10:00,78.2,70.4,30.06,South,185,0.0,0.0,77,0.00,,,0.00,WeatherDisplay:10.37,2013-07-18 13:10:00,
2013-07-18 09:20:00,78.2,70.4,30.06,South,174,0.0,0.0,77,0.00,,,0.00,WeatherDisplay:10.37,2013-07-18 13:20:00,
2013-07-18 09:30:00,78.4,70.2,30.06,South,186,1.0,0.0,76,0.00,,,0.00,WeatherDisplay:10.37,2013-07-18 13:30:00,
2013-07-18 09:40:00,78.4,70.6,30.06,SSE,160,2.0,0.0,77,0.00,,,0.00,WeatherDisplay:10.37,2013-07-18 13:40:00,
2013-07-18 09:50:00,78.6,70.4,30.06,WSW,240,1.0,0.0,76,0.00,,,0.00,WeatherDisplay:10.37,2013-07-18 13:50:00,
2013-07-18 10:00:00,79.0,70.8,30.06,WSW,249,0.0,0.0,76,0.00,,,0.00,WeatherDisplay:10.37,2013-07-18 14:00:00,
2013-07-18 10:10:00,79.3,71.5,30.06,NW,314,0.0,0.0,77,0.00,,,0.00,WeatherDisplay:10.37,2013-07-18 14:10:00,
2013-07-18 10:20:00,79.7,71.1,30.06,SW,222,3.0,0.0,75,0.00,,,0.00,WeatherDisplay:10.37,2013-07-18 14:20:00,
2013-07-18 10:30:00,79.7,70.7,30.06,WSW,246,0.0,0.0,74,0.00,,,0.00,WeatherDisplay:10.37,2013-07-18 14:30:00,
2013-07-18 10:40:00,80.2,71.6,30.06,South,170,0.0,0.0,75,0.00,,,0.00,WeatherDisplay:10.37,2013-07-18 14:40:00,
2013-07-18 10:50:00,80.4,70.9,30.06,SSE,160,0.0,0.0,73,0.00,,,0.00,WeatherDisplay:10.37,2013-07-18 14:50:00,
2013-07-18 11:00:00,80.6,70.7,30.06,South,186,0.0,0.0,72,0.00,,,0.00,WeatherDisplay:10.37,2013-07-18 15:00:00,
2013-07-18 11:10:00,80.6,71.1,30.06,SE,146,0.0,0.0,73,0.00,,,0.00,WeatherDisplay:10.37,2013-07-18 15:10:00,
2013-07-18 11:20:00,80.7,70.4,30.06,SE,127,3.0,0.0,71,0.00,,,0.00,WeatherDisplay:10.37,2013-07-18 15:20:00,
2013-07-18 11:30:00,81.0,71.1,30.06,NNE,28,0.0,0.0,72,0.00,,,0.00,WeatherDisplay:10.37,2013-07-18 15:30:00,
2013-07-18 11:40:00,81.5,71.2,30.06,SSW,205,0.0,0.0,71,0.00,,,0.00,WeatherDisplay:10.37,2013-07-18 15:40:00,
2013-07-18 11:50:00,81.9,71.9,30.06,NNW,334,0.0,0.0,72,0.00,,,0.00,WeatherDisplay:10.37,2013-07-18 15:50:00,
2013-07-18 12:00:00,82.0,71.7,30.06,NNE,29,0.0,0.0,71,0.00,,,0.00,WeatherDisplay:10.37,2013-07-18 16:00:00,
2013-07-18 12:10:00,82.3,71.1,30.06,East,98,2.0,0.0,69,0.00,,,0.00,WeatherDisplay:10.37,2013-07-18 16:10:00,
2013-07-18 12:20:00,82.3,72.0,30.06,NNE,28,0.0,0.0,71,0.00,,,0.00,WeatherDisplay:10.37,2013-07-18 16:20:00,
2013-07-18 12:30:00,82.4,72.0,30.05,East,99,0.0,0.0,71,0.00,,,0.00,WeatherDisplay:10.37,2013-07-18 16:30:00,
2013-07-18 12:40:00,82.8,72.0,30.05,SW,224,0.0,0.0,70,0.00,,,0.00,WeatherDisplay:10.37,2013-07-18 16:40:00,
2013-07-18 12:50:00,82.9,71.7,30.05,WSW,240,0.0,0.0,69,0.00,,,0.00,WeatherDisplay:10.37,2013-07-18 16:50:00,
2013-07-18 12:59:00,83.3,72.1,30.04,South,187,0.0,0.0,69,0.00,,,0.00,WeatherDisplay:10.37,2013-07-18 16:59:00,
2013-07-18 13:10:00,83.7,72.9,30.04,ENE,60,0.0,0.0,70,0.00,,,0.00,WeatherDisplay:10.37,2013-07-18 17:10:00,
2013-07-18 13:20:00,84.1,73.3,30.04,North,10,0.0,0.0,70,0.00,,,0.00,WeatherDisplay:10.37,2013-07-18 17:20:00,
2013-07-18 13:30:00,84.6,73.3,30.04,ESE,109,0.0,0.0,69,0.00,,,0.00,WeatherDisplay:10.37,2013-07-18 17:30:00,
2013-07-18 13:40:00,85.1,73.8,30.04,ESE,109,0.0,0.0,69,0.00,,,0.00,WeatherDisplay:10.37,2013-07-18 17:40:00,
2013-07-18 13:50:00,85.1,72.5,30.03,SE,145,0.0,0.0,66,0.00,,,0.00,WeatherDisplay:10.37,2013-07-18 17:50:00,
2013-07-18 14:00:00,85.0,72.4,30.03,SE,142,0.0,0.0,66,0.00,,,0.00,WeatherDisplay:10.37,2013-07-18 18:00:00,
2013-07-18 14:10:00,85.2,72.6,30.03,SE,128,0.0,0.0,66,0.00,,,0.00,WeatherDisplay:10.37,2013-07-18 18:10:00,
2013-07-18 14:20:00,85.6,73.0,30.03,SE,135,0.0,0.0,66,0.00,,,0.00,WeatherDisplay:10.37,2013-07-18 18:20:00,
2013-07-18 14:30:00,85.6,73.0,30.03,SE,124,0.0,0.0,66,0.00,,,0.00,WeatherDisplay:10.37,2013-07-18 18:30:00,
2013-07-18 14:40:00,85.9,73.2,30.02,ESE,123,0.0,0.0,66,0.00,,,0.00,WeatherDisplay:10.37,2013-07-18 18:40:00,
2013-07-18 14:50:00,86.3,74.0,30.02,ESE,113,0.0,0.0,67,0.00,,,0.00,WeatherDisplay:10.37,2013-07-18 18:50:00,
2013-07-18 15:00:00,86.4,74.1,30.01,SE,128,2.0,0.0,67,0.00,,,0.00,WeatherDisplay:10.37,2013-07-18 19:00:00,
2013-07-18 15:10:00,86.7,74.4,30.01,SE,133,1.0,0.0,67,0.00,,,0.00,WeatherDisplay:10.37,2013-07-18 19:10:00,
2013-07-18 15:20:00,87.0,74.3,30.01,SE,128,0.0,0.0,66,0.00,,,0.00,WeatherDisplay:10.37,2013-07-18 19:20:00,
2013-07-18 15:30:00,87.2,74.0,30.00,SE,127,1.0,0.0,65,0.00,,,0.00,WeatherDisplay:10.37,2013-07-18 19:30:00,
2013-07-18 15:40:00,87.4,74.2,30.00,ESE,108,0.0,0.0,65,0.00,,,0.00,WeatherDisplay:10.37,2013-07-18 19:40:00,
2013-07-18 15:50:00,87.4,74.7,30.00,ESE,105,1.0,0.0,66,0.00,,,0.00,WeatherDisplay:10.37,2013-07-18 19:50:00,
2013-07-18 16:00:00,88.0,75.2,30.00,ESE,106,0.0,0.0,66,0.00,,,0.00,WeatherDisplay:10.37,2013-07-18 20:00:00,
2013-07-18 16:10:00,88.2,74.4,29.99,NE,50,0.0,0.0,64,0.00,,,0.00,WeatherDisplay:10.37,2013-07-18 20:10:00,
2013-07-18 16:20:00,88.3,75.1,29.99,ESE,109,0.0,0.0,65,0.00,,,0.00,WeatherDisplay:10.37,2013-07-18 20:20:00,
2013-07-18 16:30:00,88.3,75.5,30.00,ESE,107,0.0,0.0,66,0.00,,,0.00,WeatherDisplay:10.37,2013-07-18 20:30:00,
2013-07-18 16:40:00,87.8,74.5,30.00,East,98,1.0,0.0,65,0.00,,,0.00,WeatherDisplay:10.37,2013-07-18 20:40:00,
2013-07-18 16:50:00,86.9,73.7,30.01,East,98,0.0,0.0,65,0.00,,,0.00,WeatherDisplay:10.37,2013-07-18 20:50:00,
2013-07-18 16:59:00,86.0,72.9,30.01,East,80,1.0,0.0,65,0.00,,,0.00,WeatherDisplay:10.37,2013-07-18 20:59:00,
2013-07-18 17:10:00,84.4,71.4,30.00,WSW,250,0.0,0.0,65,0.00,,,0.00,WeatherDisplay:10.37,2013-07-18 21:10:00,
2013-07-18 17:20:00,83.2,70.7,30.01,NE,42,0.0,0.0,66,0.00,,,0.00,WeatherDisplay:10.37,2013-07-18 21:20:00,
2013-07-18 17:30:00,82.2,70.2,30.00,North,9,1.0,0.0,67,0.00,,,0.00,WeatherDisplay:10.37,2013-07-18 21:30:00,
2013-07-18 17:40:00,81.5,69.9,30.00,NE,38,0.0,0.0,68,0.00,,,0.00,WeatherDisplay:10.37,2013-07-18 21:40:00,
2013-07-18 17:50:00,80.8,69.3,29.99,East,96,0.0,0.0,68,0.00,,,0.00,WeatherDisplay:10.37,2013-07-18 21:50:00,
2013-07-18 17:59:00,80.1,69.0,29.99,North,356,0.0,0.0,69,0.00,,,0.00,WeatherDisplay:10.37,2013-07-18 21:59:00,
2013-07-18 18:10:00,79.6,68.5,29.99,NNE,29,0.0,0.0,69,0.00,,,0.00,WeatherDisplay:10.37,2013-07-18 22:10:00,
2013-07-18 18:20:00,79.2,68.5,30.00,NNE,21,0.0,0.0,70,0.00,,,0.00,WeatherDisplay:10.37,2013-07-18 22:20:00,
2013-07-18 18:30:00,78.8,69.0,30.00,NNE,25,0.0,0.0,72,0.00,,,0.00,WeatherDisplay:10.37,2013-07-18 22:30:00,
2013-07-18 18:40:00,78.3,68.5,30.00,West,271,0.0,0.0,72,0.00,,,0.00,WeatherDisplay:10.37,2013-07-18 22:40:00,
2013-07-18 18:50:00,77.4,68.0,30.03,SW,227,0.0,0.0,73,0.00,,,0.00,WeatherDisplay:10.37,2013-07-18 22:50:00,
2013-07-18 19:00:00,76.6,67.7,30.04,WSW,243,3.0,0.0,74,0.00,,,0.00,WeatherDisplay:10.37,2013-07-18 23:00:00,
2013-07-18 20:00:00,73.0,67.9,30.00,North,9,0.0,0.0,84,0.00,,,0.00,WeatherDisplay:10.37,2013-07-19 00:00:00,
2013-07-18 20:10:00,72.9,68.1,30.00,North,360,0.0,0.0,85,0.00,,,0.00,WeatherDisplay:10.37,2013-07-19 00:10:00,
2013-07-18 20:20:00,72.7,67.9,30.00,North,352,0.0,0.0,85,0.00,,,0.00,WeatherDisplay:10.37,2013-07-19 00:20:00,
2013-07-18 20:30:00,72.5,67.7,30.00,North,350,0.0,0.0,85,0.00,,,0.00,WeatherDisplay:10.37,2013-07-19 00:30:00,
2013-07-18 20:40:00,72.1,67.4,30.01,SW,233,0.0,0.0,85,0.00,,,0.00,WeatherDisplay:10.37,2013-07-19 00:40:00,
2013-07-18 20:50:00,72.1,67.4,30.02,SSW,197,0.0,0.0,85,0.00,,,0.00,WeatherDisplay:10.37,2013-07-19 00:50:00,
2013-07-18 20:59:00,72.0,67.5,30.04,WSW,245,1.0,0.0,86,0.00,,,0.00,WeatherDisplay:10.37,2013-07-19 00:59:00,
2013-07-18 21:10:00,72.0,67.5,30.04,WSW,246,0.0,0.0,86,0.00,,,0.00,WeatherDisplay:10.37,2013-07-19 01:10:00,
2013-07-18 21:20:00,72.0,67.5,30.04,WSW,249,0.0,0.0,86,0.00,,,0.00,WeatherDisplay:10.37,2013-07-19 01:20:00,
2013-07-18 21:30:00,72.0,67.5,30.04,WSW,238,0.0,0.0,86,0.00,,,0.00,WeatherDisplay:10.37,2013-07-19 01:30:00,
2013-07-18 21:40:00,72.0,67.5,30.03,WSW,237,0.0,0.0,86,0.00,,,0.00,WeatherDisplay:10.37,2013-07-19 01:40:00,
2013-07-18 21:50:00,72.0,67.5,30.02,South,175,0.0,0.0,86,0.00,,,0.00,WeatherDisplay:10.37,2013-07-19 01:50:00,
2013-07-18 21:59:00,72.0,67.5,30.01,SW,216,0.0,0.0,86,0.00,,,0.00,WeatherDisplay:10.37,2013-07-19 01:59:00,
2013-07-18 22:10:00,72.0,67.5,30.01,South,187,0.0,0.0,86,0.00,,,0.00,WeatherDisplay:10.37,2013-07-19 02:10:00,
2013-07-18 22:20:00,72.0,67.5,30.01,WNW,293,0.0,0.0,86,0.00,,,0.00,WeatherDisplay:10.37,2013-07-19 02:20:00,
2013-07-18 22:30:00,72.0,67.5,30.00,WNW,285,0.0,0.0,86,0.00,,,0.00,WeatherDisplay:10.37,2013-07-19 02:30:00,
2013-07-18 22:40:00,72.0,67.5,30.00,South,182,0.0,0.0,86,0.00,,,0.00,WeatherDisplay:10.37,2013-07-19 02:40:00,
2013-07-18 22:50:00,72.0,67.5,30.00,SSE,150,0.0,0.0,86,0.00,,,0.00,WeatherDisplay:10.37,2013-07-19 02:50:00,
2013-07-18 23:00:00,72.0,67.5,30.00,SSE,150,0.0,0.0,86,0.00,,,0.00,WeatherDisplay:10.37,2013-07-19 03:00:00,
2013-07-18 23:10:00,72.0,67.5,30.00,SE,146,0.0,0.0,86,0.00,,,0.00,WeatherDisplay:10.37,2013-07-19 03:10:00,
2013-07-18 23:20:00,72.0,67.5,29.99,ESE,112,0.0,0.0,86,0.00,,,0.00,WeatherDisplay:10.37,2013-07-19 03:20:00,
2013-07-18 23:30:00,72.0,67.5,29.99,East,94,0.0,0.0,86,0.00,,,0.00,WeatherDisplay:10.37,2013-07-19 03:30:00,
2013-07-18 23:40:00,72.0,67.5,29.99,East,82,0.0,0.0,86,0.00,,,0.00,WeatherDisplay:10.37,2013-07-19 03:40:00,
2013-07-18 23:50:00,72.0,67.5,29.99,ESE,109,0.0,0.0,86,0.00,,,0.00,WeatherDisplay:10.37,2013-07-19 03:50:00,
2013-07-18 23:59:00,72.0,67.5,29.99,SSE,150,0.0,0.0,86,0.00,,,0.00,WeatherDisplay:10.37,2013-07-19 03:59:00,